CAPE
533 1013 817 713 297 384 555 943 1160 1268 1196 1246 766 785 340 207 132 242 470 2557 2808 2781 2676 2630 2192 2257 2235 2558 2563 2480 2034 1565 1786 1776 1731 1586 1932 1840 1732 1696 1668 1590 1548
878 743 756 417 124 408 521 653 1216 1059 1400 1046 1034 854 627 199 104 122 313 1062 2880 2902 2683 2563 3065 2699 2465 2337 2581 2406 1984 1590 1767 1820 1713 1586 1867 2230 1776 1556 1654 1722 1773
883 781 668 536 933 786 649 831 1080 1629 996 930 1122 770 206 181 15 150 222 689 1474 2874 2882 2720 2573 2185 1921 1889 1592 1422 1439 1503 1395 1292 1176 1118 1107 1112 1094 1166 1476 1720 2097
630 984 1341 1165 1244 1171 1308 1196 1392 1113 804 1011 1287 850 161 70 40 153 157 284 687 1183 1789 2226 2023 1788 1546 1207 1371 1175 1104 965 762 695 632 510 431 439 459 485 686 1064 1421
802 858 776 650 1077 884 1559 1626 1439 1205 1161 1370 1189 886 273 55 1 143 120 48 300 551 274 1013 1801 1783 921 833 968 574 632 494 435 369 241 60 0 14 112 207 256 411 672
624 398 440 798 956 1062 974 1689 1614 1493 1694 1279 828 689 148 56 0 87 147 100 129 277 5 8 92 339 1602 1420 1056 724 518 402 241 36 0 0 0 0 0 64 202 113 187
552 508 568 739 713 1305 1579 1755 1389 1377 1294 779 458 560 46 0 53 47 15 0 0 0 0 0 0 0 0 1481 1531 1461 778 648 336 125 97 23 0 0 0 0 149 165 76
454 497 853 676 599 937 1506 1447 1843 1735 1605 566 571 46 263 59 0 24 99 134 94 13 107 6 0 0 0 0 159 1256 1182 1103 890 455 167 267 287 29 0 9 39 195 215
588 716 857 757 661 842 1370 1615 1588 1837 2033 1189 132 542 545 66 0 32 126 218 276 306 158 54 110 182 114 0 37 374 1684 1581 1260 872 562 378 496 140 2 0 23 20 136
788 659 967 937 862 936 1613 1652 1732 1868 1742 2061 940 345 74 3 123 344 309 162 199 43 62 236 291 284 73 60 1 408 1318 1633 1385 1033 674 127 333 269 43 51 55 25 0
873 859 739 792 1034 1579 1912 1783 1556 1598 1784 1740 1035 464 49 31 2 41 477 405 96 0 0 8 14 0 0 0 2 407 1433 1286 1327 957 370 64 9 11 42 97 114 141 95
794 1020 1113 1128 1240 1558 1758 1607 1534 1521 1777 1486 951 353 513 685 609 433 316 196 229 4 0 0 0 0 0 0 0 68 478 884 937 995 681 184 6 22 85 152 263 269 246
529 1040 1464 1504 1413 1571 1672 1736 1524 1406 1763 1531 1277 970 619 556 423 420 257 196 188 15 0 0 0 0 0 0 0 0 0 0 224 176 234 55 0 4 17 48 81 111 131
992 1132 1039 1287 1540 1688 1731 1720 1673 1575 1629 1182 918 1071 765 643 517 470 399 265 38 0 0 0 0 0 0 0 0 0 0 0 0 0 0 0 0 1 1 4 42 61 43
571 711 822 1187 1740 1929 1944 1650 1784 1545 208 13 591 359 226 333 713 585 618 153 0 0 0 0 0 0 0 0 0 0 0 0 0 0 0 0 0 0 1 11 12 11 20
1288 1457 1443 1180 1370 1852 2037 1874 1733 1504 360 1 13 0 0 36 465 194 279 25 0 0 0 0 0 0 0 0 0 0 0 0 14 3 1 0 2 11 7 7 9 16 15
1257 1429 1400 1233 1108 1403 1896 2132 1877 1044 428 0 0 0 0 69 53 0 0 0 0 0 0 0 0 0 0 0 0 0 0 0 0 7 0 6 10 2 3 4 8 13 17
628 792 824 1033 1648 1944 1957 1913 1714 812 311 0 0 0 0 52 0 0 0 0 0 0 0 0 0 0 0 0 0 0 0 0 0 0 1 24 8 8 1 10 16 20 29
1006 1176 1590 1791 1910 1978 2151 1404 728 275 8 0 0 0 220 0 0 0 0 0 0 0 0 0 0 0 0 0 0 0 0 0 0 0 0 8 6 18 20 12 18 27 20
1634 1572 1643 1819 2048 2364 2078 920 136 9 0 1 0 80 0 0 0 0 0 0 0 0 0 0 0 0 0 0 0 0 0 0 0 0 0 4 5 18 22 15 26 26 18
1870 2019 2228 2421 2660 2710 1485 323 83 76 2 0 0 0 0 0 0 0 0 0 0 0 0 0 0 0 0 0 0 0 0 0 0 0 0 0 0 1 12 4 24 23 17
2008 2249 2510 2785 3015 3235 752 133 116 0 0 0 0 0 0 0 0 0 0 0 0 0 0 0 0 0 0 0 0 0 0 0 0 0 0 0 0 0 11 6 25 20 17
2273 2608 2910 3127 1949 149 1 15 0 0 0 0 0 0 0 0 0 0 0 0 0 0 0 0 0 0 0 0 0 0 0 0 0 0 0 0 0 0 7 2 14 18 16
2571 2961 3277 1536 361 0 0 0 0 0 0 0 0 0 0 0 0 0 0 0 0 0 0 0 0 0 0 0 0 0 0 0 0 0 0 1 2 0 4 0 6 18 15
2876 2880 1632 731 119 0 1 0 0 0 0 0 0 0 0 0 0 0 0 0 0 0 0 0 0 0 0 0 0 0 0 0 0 0 0 0 3 3 0 0 0 9 4
2478 1208 892 526 69 0 0 0 0 0 0 0 0 0 0 0 0 0 0 0 0 0 0 0 0 0 0 0 0 0 0 0 0 0 0 0 1 2 0 0 0 0 0
CIN
-204 -210 -226 -273 -354 -325 -274 -195 -186 -185 -178 -137 -164 -163 -217 -237 -267 -248 -214 -52 -42 -39 -29 -16 -21 -16 -13 -8 -7 -3 -4 -6 -7 -3 -2 -3 -0 -0 -0 -0 -0 -0 -0
-184 -206 -224 -295 -379 -312 -309 -255 -194 -185 -161 -169 -147 -174 -188 -300 -303 -289 -255 -179 -56 -51 -39 -29 -12 -9 -8 -10 -3 -3 -4 -6 -3 -4 -4 -8 -3 -0 -1 -2 -0 -0 -0
-194 -181 -208 -259 -225 -278 -290 -289 -219 -170 -194 -181 -137 -185 -270 -278 -356 -257 -268 -205 -131 -52 -39 -27 -20 -23 -19 -25 -25 -21 -20 -19 -27 -30 -32 -34 -32 -28 -25 -17 -6 -2 -0
-202 -187 -152 -185 -191 -211 -210 -217 -184 -192 -201 -163 -151 -179 -279 -355 -323 -238 -273 -217 -162 -111 -69 -28 -35 -41 -39 -38 -25 -24 -27 -29 -38 -42 -52 -65 -74 -73 -71 -64 -41 -21 -6
-161 -175 -189 -216 -189 -237 -149 -158 -146 -139 -118 -118 -126 -143 -278 -365 -177 -211 -186 -225 -193 -159 -186 -104 -38 -31 -40 -36 -34 -42 -37 -40 -48 -52 -57 -104 -0 -70 -88 -77 -75 -63 -41
-170 -250 -232 -174 -188 -178 -150 -115 -92 -120 -107 -129 -174 -163 -311 -346 -0 -256 -212 -227 -268 -185 -130 -77 -218 -122 -21 -13 -30 -42 -50 -51 -74 -98 -0 -0 -0 -0 -0 -108 -73 -90 -75
-180 -215 -223 -220 -219 -126 -116 -119 -131 -115 -108 -196 -235 -180 -309 -1 -256 -270 -131 -0 -1 -0 -0 -0 -0 -0 -0 -19 -13 -16 -29 -41 -66 -108 -88 -106 -0 -0 -0 -0 -68 -50 -77
-174 -191 -177 -216 -234 -172 -124 -117 -97 -82 -93 -239 -161 -331 -155 -198 -0 -279 -231 -209 -217 -299 -261 -93 -0 -0 -0 -0 -175 -17 -17 -17 -35 -57 -83 -69 -66 -132 -0 -204 -133 -40 -24
-176 -153 -170 -202 -223 -217 -138 -122 -118 -89 -45 -139 -305 -122 -104 -137 -0 -210 -195 -166 -153 -167 -221 -269 -209 -204 -241 -0 -154 -134 -13 -21 -15 -23 -34 -37 -32 -76 -96 -13 -200 -134 -41
-156 -195 -175 -194 -195 -204 -159 -137 -127 -93 -102 -43 -150 -214 -250 -58 -112 -56 -116 -165 -151 -257 -276 -205 -202 -174 -289 -333 -51 -100 -48 -29 -19 -16 -16 -39 -6 -11 -152 -125 -138 -154 -0
-230 -214 -223 -196 -176 -164 -146 -163 -133 -104 -95 -75 -111 -164 -282 -279 -16 -178 -44 -68 -138 -21 -0 -343 -259 -0 -0 -0 -50 -146 -26 -26 -17 -14 -11 -48 -174 -215 -160 -76 -60 -32 -20
-238 -213 -171 -163 -186 -157 -150 -148 -141 -141 -109 -134 -145 -197 -102 -54 -49 -56 -46 -81 -85 -236 -0 -0 -0 -0 -0 -0 -0 -164 -31 -7 -7 -7 -10 -20 -16 -108 -53 -22 -12 -7 -0
-308 -158 -138 -154 -186 -161 -177 -167 -268 -308 -160 -169 -137 -108 -115 -103 -117 -94 -101 -78 -65 -236 -0 -0 -0 -0 -0 -0 -0 -0 -0 -0 -50 -45 -28 -10 -0 -56 -130 -87 -60 -40 -19
-233 -187 -176 -160 -143 -147 -173 -201 -185 -157 -131 -189 -157 -89 -78 -88 -95 -98 -79 -69 -187 -0 -0 -0 -0 -0 -0 -0 -0 -0 -0 -0 -0 -0 -0 -0 -0 -0 -0 -0 -30 -31 -26
-379 -312 -253 -150 -117 -120 -145 -225 -195 -155 -474 -516 -246 -240 -268 -182 -70 -75 -64 -151 -0 -0 -0 -0 -0 -0 -0 -0 -0 -0 -0 -0 -0 -0 -0 -0 -0 -0 -0 -3 -0 -0 -32
-273 -214 -186 -201 -163 -132 -137 -168 -165 -175 -429 -273 -340 -0 -0 -386 -137 -211 -138 -222 -0 -0 -0 -0 -0 -0 -0 -0 -0 -0 -0 -0 -0 -0 -13 -0 -0 -0 -0 -0 -0 -0 -0
-317 -261 -237 -236 -242 -168 -117 -116 -147 -242 -386 -0 -0 -0 -0 -130 -296 -0 -0 -0 -0 -0 -0 -0 -0 -0 -0 -0 -0 -0 -0 -0 -0 -2 -0 -0 -0 -0 -0 -0 -0 -0 -0
-516 -455 -417 -323 -173 -114 -109 -118 -146 -301 -388 -0 -0 -0 -0 -61 -0 -0 -0 -0 -0 -0 -0 -0 -0 -0 -0 -0 -0 -0 -0 -0 -0 -0 -0 -0 -0 -0 -0 -0 -0 -0 -0
-455 -401 -300 -209 -167 -125 -104 -214 -346 -466 -480 -0 -0 -0 -171 -0 -0 -0 -0 -0 -0 -0 -0 -0 -0 -0 -0 -0 -0 -0 -0 -0 -0 -0 -0 -0 -0 -0 -0 -0 -0 -0 -0
-331 -344 -310 -243 -169 -98 -120 -313 -554 -648 -0 -92 -0 -121 -0 -0 -0 -0 -0 -0 -0 -0 -0 -0 -0 -0 -0 -0 -0 -0 -0 -0 -0 -0 -0 -1 -0 -0 -0 -0 -0 -0 -0
-307 -269 -212 -156 -104 -72 -222 -497 -566 -522 -92 -0 -0 -0 -0 -0 -0 -0 -0 -0 -0 -0 -0 -0 -0 -0 -0 -0 -0 -0 -0 -0 -0 -0 -0 -0 -0 -6 -3 -0 -0 -0 -0
-315 -237 -168 -109 -76 -42 -415 -617 -549 -0 -0 -0 -0 -0 -0 -0 -0 -0 -0 -0 -0 -0 -0 -0 -0 -0 -0 -0 -0 -0 -0 -0 -0 -0 -0 -0 -0 -5 -2 -1 -0 -0 -0
-288 -187 -118 -85 -226 -686 -0 -702 -0 -0 -0 -0 -0 -0 -0 -0 -0 -0 -0 -0 -0 -0 -0 -0 -0 -0 -0 -0 -0 -0 -0 -0 -0 -0 -0 -0 -0 -0 -3 -2 -0 -0 -0
-244 -150 -90 -354 -666 -0 -0 -0 -0 -0 -0 -0 -0 -0 -0 -0 -0 -0 -0 -0 -0 -0 -0 -0 -0 -0 -0 -0 -0 -0 -0 -0 -0 -0 -0 -0 -0 -0 -3 -1 -0 -0 -0
-207 -169 -364 -555 -792 -0 -0 -0 -0 -0 -0 -0 -0 -0 -0 -0 -0 -0 -0 -0 -0 -0 -0 -0 -0 -0 -0 -0 -0 -0 -0 -0 -0 -0 -0 -1 -1 -0 -0 -0 -0 -0 -0
-284 -507 -531 -612 -868 -0 -0 -0 -0 -0 -0 -0 -0 -0 -0 -0 -0 -0 -0 -0 -0 -0 -0 -0 -0 -0 -0 -0 -0 -0 -0 -0 -0 -0 -0 -0 -0 -0 -0 -0 -0 -0 -0
Wind_Speed
3 2 3 2 3 3 3 4 3 4 5 4 4 4 3 5 3 1 2 8 10 10 11 11 9 11 11 11 11 11 11 11 10 10 10 9 9 10 11 12 13 14 14
3 2 2 2 3 2 3 4 4 3 4 4 5 5 4 3 3 4 3 4 9 9 10 10 11 12 11 10 10 11 10 10 8 7 5 3 6 8 10 11 11 12 13
4 3 3 3 3 4 5 4 4 2 4 4 4 4 4 4 2 2 4 3 4 10 10 9 10 7 7 6 5 5 4 7 8 8 7 6 5 4 4 4 7 10 11
4 4 3 3 2 2 2 3 3 2 2 4 4 3 4 3 4 2 3 3 3 2 4 8 7 6 7 6 5 5 7 7 7 7 7 6 5 4 4 3 4 5 6
4 4 4 3 1 1 2 1 1 1 2 3 4 4 4 3 3 2 2 5 5 3 2 6 8 8 9 8 8 7 8 8 7 6 6 4 1 3 5 7 6 5 5
5 5 4 5 1 2 3 2 2 2 2 3 4 4 4 3 3 4 3 2 4 4 4 5 2 3 9 10 10 10 9 9 8 8 6 4 4 5 7 9 8 7 7
5 5 4 4 2 1 1 2 0 2 2 2 3 4 3 4 2 3 3 1 3 3 5 5 4 3 4 10 10 10 13 12 10 10 9 6 6 6 7 9 10 9 8
6 5 5 5 3 1 3 1 1 1 2 2 2 0 4 5 4 4 1 1 7 4 5 5 5 4 4 4 6 11 12 13 12 11 9 7 7 7 9 9 10 10 9
5 6 6 5 4 2 3 1 2 2 2 1 1 2 2 3 3 3 3 3 6 4 4 4 4 4 5 5 6 8 13 12 12 11 10 10 9 8 10 11 10 10 11
6 7 6 5 4 3 4 3 2 2 2 3 2 1 2 1 1 4 2 4 5 6 5 3 3 3 5 3 7 10 11 10 11 12 12 14 11 10 12 12 11 10 10
6 6 5 5 5 4 4 4 2 3 2 2 3 1 2 1 2 4 4 4 3 4 4 3 2 2 5 2 1 4 8 6 8 11 14 14 14 13 12 13 13 13 12
4 5 5 5 4 5 6 3 5 6 6 5 3 3 2 2 2 3 3 3 1 2 3 4 5 5 5 5 6 8 6 8 9 10 11 13 13 11 13 14 14 15 15
3 5 4 4 4 6 5 6 10 10 3 3 5 3 3 3 2 2 2 2 2 1 1 3 5 5 6 5 5 12 12 13 12 11 10 4 4 4 7 9 11 13 15
4 3 3 3 5 7 5 8 1 2 5 4 6 4 1 2 2 2 2 2 1 1 2 2 4 5 5 5 9 15 7 13 13 7 4 7 8 10 12 14 15 16 17
4 6 5 5 6 7 7 6 3 4 5 4 6 5 2 2 2 2 1 2 3 1 2 4 2 4 5 5 8 5 6 13 14 6 8 10 12 12 12 11 11 12 14
6 5 4 4 5 7 7 6 3 3 6 3 3 5 2 2 3 2 2 1 0 3 3 2 2 2 3 4 7 6 6 12 10 8 10 13 11 9 10 13 13 13 14
7 6 6 5 5 7 7 5 6 4 5 4 4 1 4 3 3 4 4 3 3 2 4 3 2 3 4 6 7 6 7 6 4 12 17 12 11 6 11 13 12 14 16
6 7 6 5 5 6 6 6 7 3 3 6 5 3 2 3 7 5 4 5 4 4 4 2 2 3 3 5 6 6 6 5 5 13 15 8 11 11 12 12 13 16 17
7 6 5 6 7 6 7 5 4 1 4 4 4 2 4 7 6 3 5 5 4 4 5 3 3 2 3 3 4 4 4 4 3 15 10 8 14 12 10 14 16 17 14
6 6 6 6 6 7 4 5 5 5 4 4 2 4 6 7 6 6 6 6 3 5 4 4 4 3 2 5 3 4 5 2 3 5 8 7 11 12 13 15 17 19 19
6 6 6 6 8 3 4 7 8 7 7 6 6 7 6 9 12 8 6 4 6 4 4 4 3 3 3 4 5 4 4 5 3 2 5 3 4 4 4 11 15 22 24
7 6 6 8 6 1 13 13 11 9 8 9 9 8 6 10 9 11 12 10 8 5 3 2 1 2 5 3 4 4 4 4 5 2 10 3 5 5 4 6 22 26 26
5 6 7 5 5 7 15 15 15 9 8 8 9 7 7 4 8 7 9 8 5 4 4 5 3 2 3 4 5 6 4 3 3 4 10 3 7 5 6 7 25 28 28
6 6 3 7 8 6 15 15 16 11 9 7 6 7 7 6 5 7 6 4 3 2 3 3 4 3 2 5 4 4 5 7 4 2 11 3 8 5 5 8 25 29 27
5 4 6 9 10 9 13 16 14 10 9 7 5 6 6 6 7 10 7 5 3 3 3 7 5 9 10 12 13 7 10 10 4 3 12 5 7 5 3 9 12 28 27
5 7 7 8 12 12 12 14 12 9 9 5 5 5 7 7 9 9 7 5 4 1 3 5 3 5 7 8 13 7 4 9 8 4 13 5 8 6 4 4 8 12 13
Wind_Direction
264 279 277 304 326 352 315 329 327 322 318 317 328 331 350 342 324 238 209 227 209 219 241 243 236 240 243 240 239 243 244 244 238 237 243 248 251 252 254 249 249 247 252
246 184 259 296 281 260 280 288 294 286 296 330 324 336 341 331 315 271 227 224 224 229 239 229 229 238 243 246 240 237 236 245 246 241 246 258 259 252 255 256 257 254 251
249 175 252 282 292 248 257 258 272 271 262 349 298 311 338 323 310 258 245 246 275 246 239 231 243 244 243 230 222 220 193 156 144 133 131 116 90 56 18 324 272 263 261
208 209 218 259 267 219 264 279 253 250 9 277 294 324 321 313 293 287 189 210 242 275 292 246 222 203 207 199 196 166 163 158 164 163 155 150 158 180 209 237 274 288 290
207 220 230 239 288 72 28 28 258 263 299 316 312 310 314 307 300 353 303 233 212 205 255 258 230 214 213 208 198 184 177 183 179 183 195 193 191 271 277 273 271 269 274
205 222 233 262 130 79 16 317 353 325 301 307 300 299 316 326 311 1 342 298 178 207 237 230 283 288 244 228 210 202 199 195 200 200 192 215 257 282 282 275 274 280 286
225 228 248 270 309 68 232 272 86 284 327 310 351 331 334 323 285 350 36 341 252 224 251 238 208 227 283 262 219 212 213 208 205 209 207 224 260 285 290 282 265 264 274
220 212 237 246 257 236 258 314 221 24 307 10 43 349 342 328 345 353 309 297 277 286 271 240 216 249 268 240 262 235 231 231 223 217 229 247 265 271 279 278 269 264 258
238 233 244 243 238 204 256 292 279 184 262 317 138 191 332 251 323 332 350 310 296 299 290 269 279 264 252 245 242 263 250 242 244 241 254 261 256 248 270 270 268 265 262
243 235 230 241 243 231 247 246 276 228 188 268 303 286 287 221 286 321 319 319 322 351 333 305 249 284 269 236 217 239 244 252 241 246 264 277 281 261 263 267 266 263 258
251 241 239 254 253 242 248 224 283 243 200 215 195 226 243 235 232 222 282 308 358 2 1 33 79 23 4 7 324 283 276 257 246 259 272 278 279 273 268 267 265 259 260
291 252 247 244 229 244 251 227 230 222 201 197 193 180 213 223 257 249 252 312 305 352 356 27 29 17 8 7 347 333 314 296 285 299 294 287 280 271 279 280 278 275 268
259 270 259 270 242 242 237 203 214 214 186 115 159 184 186 226 199 223 280 293 294 304 337 30 24 21 19 360 360 31 5 353 347 340 327 3 37 356 324 309 300 294 290
225 243 241 235 272 273 249 224 277 3 93 109 130 115 186 258 220 210 216 153 294 335 354 38 3 11 358 350 5 10 352 348 336 320 16 27 2 332 312 300 294 289 283
236 238 238 244 262 273 269 241 238 161 130 159 133 100 68 300 288 272 228 173 161 210 345 4 346 2 353 358 348 359 336 336 342 34 28 1 343 329 326 327 331 320 306
232 239 230 216 244 260 264 261 240 159 158 171 120 85 355 343 10 346 47 47 192 156 122 359 332 309 323 329 349 358 339 357 12 28 359 340 331 346 357 333 317 310 306
230 233 230 226 227 249 263 263 247 228 180 138 68 107 44 302 86 64 51 43 36 65 95 332 294 306 321 0 355 344 349 338 333 1 347 353 355 9 349 334 328 316 304
224 235 235 236 238 243 254 227 250 249 55 115 165 168 99 112 73 59 64 45 39 34 107 76 303 316 357 340 334 342 340 346 343 346 341 7 358 10 355 345 328 314 307
225 231 229 225 241 232 235 194 227 109 89 140 159 208 120 107 93 81 74 76 51 60 71 102 351 329 315 337 330 319 321 320 309 348 342 352 355 330 334 350 331 323 319
213 225 231 236 242 251 154 172 134 120 115 114 103 96 102 103 117 111 101 91 92 75 65 61 30 342 318 306 324 303 317 288 280 347 355 355 357 349 345 348 328 338 332
209 218 235 243 247 216 162 138 131 129 116 96 84 90 93 112 119 125 114 127 102 88 71 56 29 348 322 326 336 308 291 297 286 351 346 320 332 307 337 344 338 348 343
208 206 226 240 260 190 135 130 132 128 121 120 107 89 94 107 102 109 125 124 129 120 94 98 14 347 325 299 298 301 290 336 342 339 343 299 353 318 332 348 354 355 350
196 210 230 227 108 111 125 128 125 122 119 119 120 120 108 94 101 102 94 91 88 99 136 146 104 6 339 305 306 308 327 300 278 314 347 301 359 330 345 349 1 0 358
192 206 210 117 118 120 129 123 117 121 116 111 115 116 121 134 141 121 105 84 67 56 101 100 99 90 50 336 327 277 286 293 294 342 360 333 353 333 337 354 3 3 6
167 161 137 127 126 132 131 133 124 119 107 97 101 110 134 147 159 124 122 119 72 15 27 132 118 83 56 36 28 13 8 5 342 350 5 352 349 325 325 1 2 4 8
134 125 119 128 136 137 140 129 129 126 115 115 96 101 128 140 134 133 141 143 108 344 81 95 52 35 38 25 28 47 353 18 6 351 359 27 349 354 345 343 356 3 2